When you browse on this site, cookies collect data to enhance your experience and personalize the content and advertising you see.
Visit our Privacy Policy to learn more. By continuing to use the site, you agree to this use of cookies and data.
  • In Hungary
  • List of Countries
  • For 7 days
  • Water Temperature
  • Satellite Maps
  • Weather Map
  • News
  • Weather Widgets
  • user-avatar
    Login

    Hourly Weather Monrovia

    Today, 17 July, Wednesday

    Time Temperature Precipitation Wind Pressure Humidity
    00:00 +23°C° 0 mm 1 mps 708 mmHg 49%
    01:00 +23°C° 0 mm 1 mps 708 mmHg 50%
    02:00 +22°C° 0 mm 1 mps 708 mmHg 52%
    03:00 +22°C° 0 mm 1 mps 708 mmHg 54%
    04:00 +22°C° 0 mm 1 mps 708 mmHg 55%
    05:00 +23°C° 0 mm 1 mps 709 mmHg 53%
    06:00 +24°C° 0 mm 1 mps 709 mmHg 51%
    07:00 +25°C° 0 mm 1 mps 710 mmHg 49%
    08:00 +27°C° 0 mm 2 mps 710 mmHg 44%
    09:00 +28°C° 0 mm 2 mps 710 mmHg 40%
    10:00 +30°C° 0 mm 3 mps 711 mmHg 35%
    11:00 +31°C° 0 mm 3 mps 711 mmHg 33%
    12:00 +32°C° 0 mm 4 mps 710 mmHg 31%
    13:00 +33°C° 0 mm 4 mps 710 mmHg 29%
    14:00 +32°C° 0 mm 4 mps 710 mmHg 30%
    15:00 +32°C° 0 mm 4 mps 710 mmHg 32%
    16:00 +30°C° 0 mm 4 mps 709 mmHg 33%
    17:00 +28°C° 0 mm 3 mps 709 mmHg 40%
    18:00 +26°C° 0 mm 3 mps 709 mmHg 46%
    19:00 +24°C° 0 mm 2 mps 709 mmHg 53%
    20:00 +24°C° 0 mm 2 mps 710 mmHg 57%
    21:00 +23°C° 0 mm 2 mps 710 mmHg 61%
    22:00 +21°C° 0 mm 2 mps 710 mmHg 65%
    23:00 +21°C° 0 mm 2 mps 710 mmHg 68%

    Tomorrow, 18 July, Thursday

    Time Temperature Precipitation Wind Pressure Humidity
    00:00 +20°C° 0 mm 2 mps 710 mmHg 71%
    01:00 +20°C° 0 mm 2 mps 710 mmHg 74%
    02:00 +19°C° 0 mm 2 mps 710 mmHg 74%
    03:00 +19°C° 0 mm 2 mps 710 mmHg 75%
    04:00 +19°C° 0 mm 2 mps 710 mmHg 76%
    05:00 +20°C° 0 mm 2 mps 710 mmHg 72%
    06:00 +21°C° 0 mm 2 mps 710 mmHg 69%
    07:00 +21°C° 0 mm 2 mps 711 mmHg 65%
    08:00 +24°C° 0 mm 2 mps 711 mmHg 58%
    09:00 +26°C° 0 mm 3 mps 711 mmHg 51%
    10:00 +27°C° 0 mm 3 mps 711 mmHg 43%
    11:00 +28°C° 0 mm 3 mps 711 mmHg 40%
    12:00 +29°C° 0 mm 4 mps 711 mmHg 36%
    13:00 +30°C° 0 mm 4 mps 711 mmHg 32%
    14:00 +29°C° 0 mm 4 mps 710 mmHg 32%
    15:00 +29°C° 0 mm 4 mps 710 mmHg 32%
    16:00 +28°C° 0 mm 4 mps 709 mmHg 32%
    17:00 +26°C° 0 mm 3 mps 709 mmHg 38%
    18:00 +24°C° 0 mm 3 mps 709 mmHg 44%
    19:00 +23°C° 0 mm 2 mps 709 mmHg 50%
    20:00 +21°C° 0 mm 2 mps 709 mmHg 53%
    21:00 +20°C° 0 mm 2 mps 709 mmHg 57%
    22:00 +19°C° 0 mm 2 mps 709 mmHg 60%
    23:00 +19°C° 0 mm 2 mps 709 mmHg 60%

    Day after tomorrow, 19 July, Friday

    Time Temperature Precipitation Wind Pressure Humidity
    00:00 +20°C° 0 mm 1 mps 709 mmHg 59%
    01:00 +19°C° 0 mm 1 mps 709 mmHg 59%
    02:00 +19°C° 0 mm 1 mps 709 mmHg 59%
    03:00 +19°C° 0 mm 1 mps 709 mmHg 60%
    04:00 +19°C° 0 mm 1 mps 709 mmHg 61%
    05:00 +20°C° 0 mm 1 mps 709 mmHg 58%
    06:00 +21°C° 0 mm 1 mps 709 mmHg 55%
    07:00 +22°C° 0 mm 1 mps 710 mmHg 51%
    08:00 +23°C° 0 mm 2 mps 710 mmHg 47%
    09:00 +25°C° 0 mm 2 mps 710 mmHg 42%
    10:00 +26°C° 0 mm 3 mps 711 mmHg 38%
    11:00 +27°C° 0 mm 3 mps 710 mmHg 36%
    12:00 +28°C° 0 mm 4 mps 710 mmHg 34%
    13:00 +29°C° 0 mm 4 mps 710 mmHg 32%
    14:00 +29°C° 0 mm 4 mps 710 mmHg 33%
    15:00 +28°C° 0 mm 4 mps 709 mmHg 34%
    16:00 +28°C° 0 mm 4 mps 709 mmHg 35%
    17:00 +26°C° 0 mm 3 mps 709 mmHg 41%
    18:00 +24°C° 0 mm 3 mps 709 mmHg 48%
    19:00 +21°C° 0 mm 2 mps 709 mmHg 54%
    20:00 +21°C° 0 mm 2 mps 709 mmHg 55%
    21:00 +20°C° 0 mm 2 mps 709 mmHg 57%
    22:00 +19°C° 0 mm 2 mps 709 mmHg 58%
    23:00 +20°C° 0 mm 1 mps 709 mmHg 57%

    20 July, Saturday

    Time Temperature Precipitation Wind Pressure Humidity
    00:00 +20°C° 0 mm 1 mps 709 mmHg 57%
    01:00 +20°C° 0 mm 1 mps 709 mmHg 56%
    02:00 +19°C° 0 mm 1 mps 709 mmHg 57%
    03:00 +19°C° 0 mm 1 mps 709 mmHg 58%
    04:00 +19°C° 0 mm 1 mps 709 mmHg 60%
    05:00 +20°C° 0 mm 1 mps 710 mmHg 57%
    06:00 +21°C° 0 mm 1 mps 710 mmHg 55%
    07:00 +22°C° 0 mm 1 mps 710 mmHg 52%
    08:00 +24°C° 0 mm 2 mps 711 mmHg 47%
    09:00 +26°C° 0 mm 2 mps 711 mmHg 42%
    10:00 +27°C° 0 mm 3 mps 711 mmHg 38%
    11:00 +28°C° 0 mm 3 mps 711 mmHg 35%
    12:00 +29°C° 0 mm 3 mps 710 mmHg 33%
    13:00 +30°C° 0 mm 4 mps 710 mmHg 31%
    14:00 +30°C° 0 mm 4 mps 710 mmHg 32%
    15:00 +29°C° 0 mm 4 mps 709 mmHg 33%
    16:00 +29°C° 0 mm 4 mps 709 mmHg 33%
    17:00 +27°C° 0 mm 3 mps 709 mmHg 39%
    18:00 +26°C° 0 mm 3 mps 709 mmHg 44%
    19:00 +24°C° 0 mm 2 mps 708 mmHg 49%
    20:00 +23°C° 0 mm 2 mps 709 mmHg 49%
    21:00 +23°C° 0 mm 1 mps 709 mmHg 48%
    22:00 +22°C° 0 mm 1 mps 709 mmHg 48%
    23:00 +22°C° 0 mm 1 mps 709 mmHg 48%

    21 July, Sunday

    Time Temperature Precipitation Wind Pressure Humidity
    00:00 +22°C° 0 mm 1 mps 709 mmHg 48%
    01:00 +22°C° 0 mm 1 mps 709 mmHg 48%
    02:00 +21°C° 0 mm 1 mps 709 mmHg 48%
    03:00 +21°C° 0 mm 1 mps 709 mmHg 49%
    04:00 +21°C° 0 mm 1 mps 709 mmHg 49%
    05:00 +22°C° 0 mm 1 mps 709 mmHg 46%
    06:00 +24°C° 0 mm 1 mps 710 mmHg 44%
    07:00 +25°C° 0 mm 1 mps 710 mmHg 41%
    08:00 +27°C° 0 mm 1 mps 710 mmHg 37%
    09:00 +28°C° 0 mm 2 mps 710 mmHg 34%
    10:00 +30°C° 0 mm 2 mps 711 mmHg 30%
    11:00 +31°C° 0 mm 3 mps 710 mmHg 28%
    12:00 +33°C° 0 mm 3 mps 710 mmHg 26%
    13:00 +34°C° 0 mm 3 mps 710 mmHg 25%
    14:00 +33°C° 0 mm 3 mps 710 mmHg 26%
    15:00 +31°C° 0 mm 3 mps 709 mmHg 28%
    16:00 +31°C° 0 mm 3 mps 709 mmHg 29%
    17:00 +29°C° 0 mm 2 mps 709 mmHg 33%
    18:00 +28°C° 0 mm 2 mps 709 mmHg 37%
    19:00 +26°C° 0 mm 2 mps 709 mmHg 41%
    20:00 +26°C° 0 mm 2 mps 709 mmHg 43%
    21:00 +25°C° 0 mm 1 mps 709 mmHg 45%
    22:00 +24°C° 0 mm 1 mps 709 mmHg 47%
    23:00 +24°C° 0 mm 1 mps 709 mmHg 48%

    22 July, Monday

    Time Temperature Precipitation Wind Pressure Humidity
    00:00 +24°C° 0 mm 1 mps 709 mmHg 49%
    01:00 +24°C° 0 mm 1 mps 709 mmHg 49%
    02:00 +24°C° 0 mm 1 mps 709 mmHg 50%
    03:00 +24°C° 0 mm 1 mps 709 mmHg 50%
    04:00 +23°C° 0 mm 1 mps 709 mmHg 51%
    05:00 +25°C° 0 mm 1 mps 710 mmHg 48%
    06:00 +26°C° 0 mm 1 mps 710 mmHg 46%
    07:00 +27°C° 0 mm 1 mps 711 mmHg 44%
    08:00 +28°C° 0 mm 1 mps 711 mmHg 40%
    09:00 +30°C° 0 mm 2 mps 711 mmHg 36%
    10:00 +31°C° 0 mm 2 mps 712 mmHg 32%
    11:00 +33°C° 0 mm 3 mps 711 mmHg 31%
    12:00 +34°C° 0 mm 3 mps 711 mmHg 29%
    13:00 +35°C° 0 mm 4 mps 711 mmHg 28%
    14:00 +35°C° 0 mm 4 mps 711 mmHg 28%
    15:00 +34°C° 0 mm 4 mps 711 mmHg 28%
    16:00 +34°C° 0 mm 4 mps 710 mmHg 29%
    17:00 +31°C° 0 mm 3 mps 710 mmHg 33%
    18:00 +29°C° 0 mm 3 mps 710 mmHg 37%
    19:00 +27°C° 0 mm 2 mps 710 mmHg 41%
    20:00 +27°C° 0 mm 2 mps 711 mmHg 42%
    21:00 +26°C° 0 mm 1 mps 711 mmHg 44%
    22:00 +25°C° 0 mm 1 mps 712 mmHg 45%
    23:00 +25°C° 0 mm 1 mps 711 mmHg 45%
    Show more